Showing default

COSMOS 2424 (GLONASS), 29672

Orbit data source: Space-Track

COSMOS 2424 (GLONASS), 29672 is a Commonwealth of Independent States-origin payload satellite in MEO that was launched on Mon, 25 Dec 2006 UTC via a PROTON-K/DM-2 launch vehicle from the Tyuratam Missile And Space Complex (TTMTR). Payload-class satellites include a variety of spacecraft equipped with specific instruments for various scientific and technological missions. These include communications satellites like Starlink; space stations such as the ISS; scientific satellites like the Hubble; Earth observation satellites from companies like Planet Labs, Umbra, and HawkEye 360; GPS; miniature CubeSats for education and research; and military/defense satellites.

Loading next visibility...
Identifier
29672, 2006-062C
Orbit
MEO
Last TLE update
12 hours ago
Origin
Manufacturer
Resehetnev ISS
Mission
Non-operational Defense Navigation
Bus & Motor
URAGAN, Unknown motor
Mass
1,450 kg wet, ~1,200 kg dry
Launch date (UTC)
2006-12-25 (19 years ago)
Launch vehicle
PROTON-K/DM-2
Launch site
Tyuratam Missile And Space Complex (TTMTR)
Object type
Payload
Rocket body
Debris
Shape & HBR
Cyl + 1 Arm + 2 Pan, 7.8 m
Radar Cross Section
8.145 m², Large (>1 m²)

Expand to show TLE details & history

TLE from 12 hours ago
0 COSMOS 2424 (GLONASS)
1 29672U 06062C   25183.32607778  .00000074  00000-0  00000-0 0  9990
2 29672  64.6947 205.9416 0019725 176.1108 183.9561  2.13122960144120
Epoch: 2025-07-02T07:49Z
TLE epoch observation values (Epoch: 2025-07-02T07:49:33.12Z)
Latitude
-0.00002°
Longitude
167.94959°
Altitude
19,178.961 km
Speed
3.945 km/s
True Right ascension
13h 43m 47s
True Declination
0° 00' 00"
Sunlit
Object was in daylight at epoch
Visualization orbit readout
Latitude
27.90672°
Longitude
-177.5765°
Altitude
19,170.93 km
Speed
3.947 km/s
Apparent Right ascension
15h 27m 06s
Apparent Declination
18° 00' 57"
Sunlit
Object is in daylight
Visualization observer readout
Local Sidereal Time
07:47:50
Azimuth
60.252° ENE
Elevation
-6.18°
Doppler factor
1
Orbital elements
Apogee altitude
19,178.151 km
Perigee altitude
19,077.53 km
Semi-major axis
25,505.977 km
Eccentricity
0.00197
Inclination
64.6947°
RAAN
205.9416°
Arg. of periapsis
176.1108°
True anomaly
Unknown
Mean anomaly
183.9561°
Eccentric anomaly
Unknown
Mean motion
0.53282 °/min
Orbital period
675.65 mins
BSTAR
0
Loading maneuver chart data...
Loading SW <> Apogee altitude chart data...
Loading historical data...
Loading historical data...
Loading historical data...
Loading historical data...
Loading historical data...
Loading historical data...
Loading historical data...

COSMOS 2424 (GLONASS) Visibility forecast

Observer location: undefined°, undefined°

Span
Click to sort rows by Start time (UTC) header in descending order
Start Az.
Max El. time (UTC)
Max El. Az.
Max El.
End time (UTC)
End Az.
357 mins2025-07-03 06:41:52.331Z262.352° W2025-07-03 10:07:52.331Z46.668° ENE42.254°2025-07-03 12:38:52.331Z149.635° SSE
|